QFA448 YPAD-YMML

Flight info

Callsign QFA448
Flight time 0h 58m
Altitude 39000
Route AD V255 BENDO Y12 ARBEY H119 ML
Aircraft A333/H-SDE2E3FGHIJ4J5M1RWXY/LB1D1

Departure

Time 2026-05-06 11:30
Airport Adelaide International Airport (YPAD)

Arrival

Time 2026-05-06 12:28
Airport Melbourne Airport (YMML)
Time Latitude Longitude Altitude Speed Heading
2026-05-06 11:10 -34.94065 138.53669 29 ft 0 kts 320°
2026-05-06 11:19 -34.94072 138.53677 30 ft 2 kts 320°
2026-05-06 11:19 -34.94085 138.53690 29 ft 2 kts 320°
2026-05-06 11:20 -34.94101 138.53707 28 ft 2 kts 320°
2026-05-06 11:20 -34.94109 138.53715 29 ft 2 kts 333°
2026-05-06 11:20 -34.94125 138.53722 29 ft 2 kts 31°
2026-05-06 11:20 -34.94127 138.53721 29 ft 1 kts 46°
2026-05-06 11:21 -34.94126 138.53723 29 ft 0 kts 46°
2026-05-06 11:26 -34.94120 138.53731 30 ft 2 kts 46°
2026-05-06 11:26 -34.94103 138.53753 30 ft 5 kts 49°
2026-05-06 11:26 -34.94080 138.53791 30 ft 7 kts 54°
2026-05-06 11:27 -34.94048 138.53844 30 ft 9 kts 51°
2026-05-06 11:27 -34.94003 138.53907 30 ft 11 kts 48°
2026-05-06 11:27 -34.93949 138.53984 30 ft 13 kts 50°
2026-05-06 11:27 -34.93891 138.54076 30 ft 14 kts 65°
2026-05-06 11:28 -34.93923 138.54170 30 ft 13 kts 139°
2026-05-06 11:28 -34.93981 138.54224 30 ft 9 kts 141°
2026-05-06 11:28 -34.94033 138.54276 30 ft 10 kts 140°
2026-05-06 11:28 -34.94071 138.54292 30 ft 3 kts 195°
2026-05-06 11:29 -34.94093 138.54278 30 ft 4 kts 213°
2026-05-06 11:29 -34.94126 138.54238 30 ft 14 kts 228°
2026-05-06 11:29 -34.94249 138.54059 30 ft 52 kts 230°
2026-05-06 11:29 -34.94621 138.53514 30 ft 113 kts 230°
2026-05-06 11:30 -34.95238 138.52627 49 ft 158 kts 227°
2026-05-06 11:30 -34.95938 138.51573 590 ft 162 kts 227°
2026-05-06 11:30 -34.96652 138.50534 1286 ft 158 kts 226°
2026-05-06 11:30 -34.97361 138.49511 1879 ft 163 kts 224°
2026-05-06 11:31 -34.98147 138.48389 2208 ft 184 kts 225°
2026-05-06 11:31 -34.99034 138.47115 2507 ft 211 kts 225°
2026-05-06 11:31 -35.00026 138.45678 2930 ft 229 kts 226°
2026-05-06 11:31 -35.01059 138.44168 3631 ft 234 kts 226°
2026-05-06 11:32 -35.02201 138.42753 4331 ft 236 kts 217°
2026-05-06 11:32 -35.03623 138.41787 5106 ft 235 kts 200°
2026-05-06 11:32 -35.05254 138.41561 5799 ft 243 kts 177°
2026-05-06 11:32 -35.06864 138.42306 6420 ft 258 kts 149°
2026-05-06 11:33 -35.08011 138.44059 7046 ft 277 kts 118°
2026-05-06 11:33 -35.08498 138.46386 7623 ft 288 kts 105°
2026-05-06 11:33 -35.08823 138.48795 8473 ft 294 kts 105°
2026-05-06 11:33 -35.09171 138.51304 9434 ft 298 kts 106°
2026-05-06 11:34 -35.09533 138.53782 10319 ft 304 kts 106°
2026-05-06 11:34 -35.09935 138.56406 10740 ft 326 kts 106°
2026-05-06 11:34 -35.10378 138.59249 11123 ft 346 kts 106°
2026-05-06 11:34 -35.10833 138.62186 11712 ft 357 kts 106°
2026-05-06 11:35 -35.11293 138.65158 12406 ft 364 kts 106°
2026-05-06 11:35 -35.11767 138.68230 13104 ft 373 kts 106°
2026-05-06 11:35 -35.12254 138.71366 13859 ft 378 kts 106°
2026-05-06 11:35 -35.12747 138.74546 14604 ft 383 kts 107°
2026-05-06 11:36 -35.13243 138.77756 15345 ft 387 kts 107°
2026-05-06 11:36 -35.13743 138.81002 16078 ft 391 kts 107°
2026-05-06 11:36 -35.14248 138.84279 16835 ft 394 kts 107°
2026-05-06 11:36 -35.14759 138.87591 17581 ft 399 kts 107°
2026-05-06 11:37 -35.15275 138.90945 18259 ft 404 kts 108°
2026-05-06 11:37 -35.15796 138.94338 18942 ft 408 kts 107°
2026-05-06 11:37 -35.16321 138.97768 19543 ft 413 kts 107°
2026-05-06 11:37 -35.16852 139.01239 20150 ft 418 kts 107°
2026-05-06 11:38 -35.17395 139.04790 20773 ft 421 kts 107°
2026-05-06 11:38 -35.17932 139.08320 21420 ft 424 kts 106°
2026-05-06 11:38 -35.18473 139.11884 21962 ft 430 kts 106°
2026-05-06 11:38 -35.19022 139.15498 22511 ft 435 kts 106°
2026-05-06 11:39 -35.19574 139.19144 23098 ft 438 kts 106°
2026-05-06 11:39 -35.20121 139.22773 23652 ft 442 kts 106°
2026-05-06 11:39 -35.20680 139.26482 24145 ft 446 kts 106°
2026-05-06 11:39 -35.21242 139.30221 24604 ft 449 kts 105°
2026-05-06 11:40 -35.21809 139.33995 25068 ft 452 kts 105°
2026-05-06 11:40 -35.22376 139.37787 25524 ft 455 kts 105°
2026-05-06 11:40 -35.22947 139.41610 25975 ft 458 kts 105°
2026-05-06 11:40 -35.23520 139.45450 26425 ft 461 kts 105°
2026-05-06 11:41 -35.24132 139.49309 26851 ft 462 kts 108°
2026-05-06 11:41 -35.25103 139.53025 27294 ft 458 kts 117°
2026-05-06 11:41 -35.26328 139.56646 27600 ft 462 kts 120°
2026-05-06 11:41 -35.27654 139.60238 27992 ft 464 kts 121°
2026-05-06 11:42 -35.29022 139.63827 28413 ft 466 kts 121°
2026-05-06 11:42 -35.30403 139.67428 28810 ft 469 kts 121°
2026-05-06 11:42 -35.31785 139.71056 29195 ft 472 kts 121°
2026-05-06 11:42 -35.33162 139.74709 29603 ft 475 kts 120°
2026-05-06 11:43 -35.34544 139.78407 29875 ft 480 kts 120°
2026-05-06 11:43 -35.35931 139.82142 30212 ft 483 kts 120°
2026-05-06 11:43 -35.37321 139.85904 30555 ft 485 kts 120°
2026-05-06 11:44 -35.40110 139.93478 31140 ft 490 kts 120°
2026-05-06 11:44 -35.41512 139.97290 31451 ft 492 kts 120°
2026-05-06 11:44 -35.42927 140.01135 31653 ft 497 kts 120°
2026-05-06 11:44 -35.44350 140.05009 31928 ft 499 kts 119°
2026-05-06 11:45 -35.45779 140.08903 32207 ft 501 kts 119°
2026-05-06 11:45 -35.47208 140.12806 32554 ft 502 kts 119°
2026-05-06 11:45 -35.48636 140.16710 32961 ft 501 kts 119°
2026-05-06 11:45 -35.50059 140.20609 33345 ft 501 kts 120°
2026-05-06 11:46 -35.51490 140.24527 33581 ft 504 kts 120°
2026-05-06 11:46 -35.52923 140.28456 33912 ft 504 kts 120°
2026-05-06 11:46 -35.54352 140.32381 34290 ft 503 kts 120°
2026-05-06 11:46 -35.55779 140.36304 34580 ft 503 kts 119°
2026-05-06 11:47 -35.57205 140.40229 34828 ft 504 kts 119°
2026-05-06 11:47 -35.58634 140.44167 35052 ft 506 kts 119°
2026-05-06 11:47 -35.60072 140.48131 35186 ft 510 kts 119°
2026-05-06 11:47 -35.61515 140.52114 35440 ft 510 kts 118°
2026-05-06 11:48 -35.62955 140.56100 35716 ft 510 kts 118°
2026-05-06 11:48 -35.64375 140.60036 35971 ft 511 kts 118°
2026-05-06 11:48 -35.65814 140.64028 36179 ft 511 kts 118°
2026-05-06 11:48 -35.67256 140.68033 36382 ft 514 kts 118°
2026-05-06 11:49 -35.68724 140.72111 36565 ft 515 kts 118°
2026-05-06 11:49 -35.70152 140.76087 36817 ft 516 kts 118°
2026-05-06 11:49 -35.71602 140.80128 37077 ft 516 kts 118°
2026-05-06 11:49 -35.73051 140.84174 37296 ft 517 kts 118°
2026-05-06 11:50 -35.74499 140.88222 37568 ft 517 kts 118°
2026-05-06 11:50 -35.75950 140.92282 37709 ft 519 kts 118°
2026-05-06 11:50 -35.77405 140.96357 37940 ft 520 kts 117°
2026-05-06 11:50 -35.78859 141.00439 38161 ft 520 kts 117°
2026-05-06 11:51 -35.80312 141.04521 38391 ft 521 kts 117°
2026-05-06 11:51 -35.81765 141.08609 38621 ft 521 kts 117°
2026-05-06 11:51 -35.83217 141.12701 38828 ft 522 kts 117°
2026-05-06 11:51 -35.84673 141.16805 38958 ft 524 kts 117°
2026-05-06 11:52 -35.86131 141.20922 39122 ft 524 kts 117°
2026-05-06 11:52 -35.87588 141.25045 39252 ft 525 kts 117°
2026-05-06 11:52 -35.90510 141.33326 39278 ft 525 kts 117°
2026-05-06 11:53 -35.93415 141.41583 39272 ft 525 kts 117°
2026-05-06 11:53 -35.96321 141.49861 39271 ft 526 kts 117°
2026-05-06 11:54 -35.99223 141.58152 39271 ft 526 kts 117°
2026-05-06 11:54 -36.02120 141.66451 39268 ft 526 kts 117°
2026-05-06 11:55 -36.05009 141.74749 39266 ft 526 kts 117°
2026-05-06 11:55 -36.07895 141.83062 39273 ft 526 kts 117°
2026-05-06 11:56 -36.10777 141.91384 39263 ft 527 kts 117°
2026-05-06 11:56 -36.13639 141.99673 39263 ft 527 kts 116°
2026-05-06 11:57 -36.16533 142.08077 39258 ft 528 kts 116°
2026-05-06 11:57 -36.19404 142.16436 39249 ft 528 kts 116°
2026-05-06 11:58 -36.22271 142.24808 39251 ft 528 kts 116°
2026-05-06 11:58 -36.25134 142.33191 39250 ft 528 kts 116°
2026-05-06 11:59 -36.27974 142.41529 39241 ft 529 kts 116°
2026-05-06 11:59 -36.29420 142.45785 39070 ft 529 kts 116°
2026-05-06 11:59 -36.30845 142.49983 38827 ft 528 kts 116°
2026-05-06 12:00 -36.32267 142.54180 38568 ft 528 kts 116°
2026-05-06 12:00 -36.33670 142.58327 38299 ft 530 kts 116°
2026-05-06 12:00 -36.35096 142.62547 38015 ft 531 kts 116°
2026-05-06 12:00 -36.36060 142.65401 37831 ft 531 kts 116°
2026-05-06 12:01 -36.37946 142.70995 37472 ft 531 kts 116°
2026-05-06 12:01 -36.38905 142.73844 37292 ft 530 kts 116°
2026-05-06 12:01 -36.40786 142.79441 36969 ft 531 kts 115°
2026-05-06 12:01 -36.42208 142.83676 36707 ft 532 kts 115°
2026-05-06 12:02 -36.43170 142.86545 36540 ft 532 kts 115°
2026-05-06 12:02 -36.45048 142.92170 36180 ft 532 kts 115°
2026-05-06 12:02 -36.46005 142.95038 35874 ft 531 kts 115°
2026-05-06 12:02 -36.47418 142.99276 35261 ft 532 kts 115°
2026-05-06 12:03 -36.48835 143.03529 34606 ft 534 kts 115°
2026-05-06 12:03 -36.50258 143.07807 33845 ft 537 kts 114°
2026-05-06 12:03 -36.51685 143.12105 33096 ft 538 kts 114°
2026-05-06 12:03 -36.53115 143.16418 32359 ft 540 kts 114°
2026-05-06 12:04 -36.54545 143.20739 31630 ft 542 kts 115°
2026-05-06 12:04 -36.55972 143.25057 31140 ft 538 kts 115°
2026-05-06 12:04 -36.57387 143.29348 30627 ft 534 kts 114°
2026-05-06 12:04 -36.58770 143.33550 30101 ft 531 kts 114°
2026-05-06 12:05 -36.60165 143.37791 29547 ft 527 kts 115°
2026-05-06 12:05 -36.61544 143.41991 29028 ft 522 kts 115°
2026-05-06 12:05 -36.62911 143.46161 28502 ft 518 kts 115°
2026-05-06 12:05 -36.64269 143.50305 28016 ft 515 kts 115°
2026-05-06 12:06 -36.65615 143.54419 27487 ft 512 kts 115°
2026-05-06 12:06 -36.66953 143.58510 26952 ft 508 kts 115°
2026-05-06 12:06 -36.68279 143.62575 26444 ft 505 kts 115°
2026-05-06 12:06 -36.69597 143.66622 25910 ft 503 kts 115°
2026-05-06 12:07 -36.70909 143.70653 25405 ft 500 kts 115°
2026-05-06 12:07 -36.72211 143.74660 24897 ft 498 kts 116°
2026-05-06 12:07 -36.73507 143.78650 24400 ft 496 kts 115°
2026-05-06 12:07 -36.74794 143.82622 23881 ft 494 kts 115°
2026-05-06 12:08 -36.76079 143.86591 23329 ft 492 kts 115°
2026-05-06 12:08 -36.77351 143.90529 22819 ft 487 kts 115°
2026-05-06 12:08 -36.78608 143.94428 22322 ft 483 kts 115°
2026-05-06 12:08 -36.79855 143.98298 21821 ft 479 kts 115°
2026-05-06 12:09 -36.81091 144.02137 21329 ft 475 kts 115°
2026-05-06 12:09 -36.82316 144.05947 20827 ft 471 kts 115°
2026-05-06 12:09 -36.83531 144.09733 20357 ft 468 kts 115°
2026-05-06 12:09 -36.84736 144.13489 19869 ft 465 kts 115°
2026-05-06 12:10 -36.85931 144.17222 19388 ft 461 kts 115°
2026-05-06 12:10 -36.87117 144.20930 18913 ft 458 kts 115°
2026-05-06 12:10 -36.88296 144.24618 18432 ft 456 kts 115°
2026-05-06 12:10 -36.89467 144.28284 17918 ft 453 kts 114°
2026-05-06 12:11 -36.90625 144.31921 17444 ft 448 kts 114°
2026-05-06 12:11 -36.91773 144.35524 16961 ft 444 kts 115°
2026-05-06 12:11 -36.93229 144.38868 16513 ft 433 kts 131°
2026-05-06 12:11 -36.95070 144.41791 16072 ft 425 kts 136°
2026-05-06 12:12 -36.96977 144.44593 15609 ft 421 kts 137°
2026-05-06 12:12 -36.98885 144.47352 15139 ft 418 kts 137°
2026-05-06 12:12 -37.00784 144.50087 14698 ft 415 kts 137°
2026-05-06 12:12 -37.02676 144.52803 14236 ft 413 kts 137°
2026-05-06 12:13 -37.04557 144.55505 13768 ft 409 kts 137°
2026-05-06 12:13 -37.06422 144.58184 13337 ft 406 kts 137°
2026-05-06 12:13 -37.08260 144.60823 13162 ft 400 kts 137°
2026-05-06 12:13 -37.10090 144.63451 13158 ft 401 kts 137°
2026-05-06 12:14 -37.11922 144.66082 13068 ft 398 kts 137°
2026-05-06 12:14 -37.13742 144.68700 12441 ft 400 kts 136°
2026-05-06 12:14 -37.15601 144.71306 11775 ft 400 kts 140°
2026-05-06 12:14 -37.17822 144.73274 11211 ft 384 kts 163°
2026-05-06 12:15 -37.20305 144.74192 10981 ft 364 kts 175°
2026-05-06 12:15 -37.22737 144.74827 10836 ft 351 kts 176°
2026-05-06 12:15 -37.25067 144.75418 10575 ft 331 kts 175°
2026-05-06 12:15 -37.27272 144.75982 10028 ft 316 kts 175°
2026-05-06 12:16 -37.29390 144.76536 9613 ft 307 kts 175°
2026-05-06 12:16 -37.31441 144.77073 9332 ft 304 kts 175°
2026-05-06 12:16 -37.33491 144.77616 9121 ft 298 kts 175°
2026-05-06 12:16 -37.35513 144.78056 8837 ft 292 kts 179°
2026-05-06 12:17 -37.37540 144.78380 8554 ft 289 kts 180°
2026-05-06 12:17 -37.39529 144.78693 8276 ft 287 kts 180°
2026-05-06 12:17 -37.41473 144.79013 7994 ft 285 kts 179°
2026-05-06 12:17 -37.43427 144.79342 7725 ft 282 kts 179°
2026-05-06 12:18 -37.45358 144.79679 7550 ft 276 kts 179°
2026-05-06 12:18 -37.47227 144.80023 7455 ft 268 kts 178°
2026-05-06 12:18 -37.49042 144.80419 7353 ft 261 kts 177°
2026-05-06 12:18 -37.50800 144.80817 7271 ft 253 kts 178°
2026-05-06 12:19 -37.52505 144.81199 7184 ft 245 kts 178°
2026-05-06 12:19 -37.54152 144.81658 7100 ft 243 kts 168°
2026-05-06 12:19 -37.55586 144.82818 6943 ft 253 kts 136°
2026-05-06 12:19 -37.56337 144.84812 6856 ft 255 kts 102°
2026-05-06 12:20 -37.56525 144.87009 6796 ft 248 kts 94°
2026-05-06 12:20 -37.56616 144.89154 6694 ft 242 kts 94°
2026-05-06 12:20 -37.56706 144.91240 6602 ft 235 kts 95°
2026-05-06 12:20 -37.56804 144.93267 6527 ft 228 kts 95°
2026-05-06 12:21 -37.56901 144.95218 6382 ft 219 kts 95°
2026-05-06 12:21 -37.56997 144.97120 6085 ft 216 kts 96°
2026-05-06 12:21 -37.57095 144.99001 5753 ft 214 kts 97°
2026-05-06 12:21 -37.57229 145.00858 5437 ft 210 kts 107°
2026-05-06 12:22 -37.57821 145.02446 5095 ft 192 kts 145°
2026-05-06 12:22 -37.58880 145.03226 4787 ft 167 kts 179°
2026-05-06 12:22 -37.59988 145.03313 4472 ft 157 kts 192°
2026-05-06 12:22 -37.61072 145.03220 4169 ft 156 kts 194°
2026-05-06 12:23 -37.62167 145.03105 3800 ft 159 kts 193°
2026-05-06 12:23 -37.63271 145.02997 3432 ft 159 kts 193°
2026-05-06 12:23 -37.64376 145.02896 3231 ft 159 kts 192°
2026-05-06 12:23 -37.65464 145.02738 3039 ft 155 kts 201°
2026-05-06 12:24 -37.66393 145.02150 2858 ft 148 kts 227°
2026-05-06 12:24 -37.66947 145.01100 2715 ft 144 kts 252°
2026-05-06 12:24 -37.67052 144.99843 2602 ft 145 kts 267°
2026-05-06 12:24 -37.67002 144.98567 2554 ft 146 kts 268°
2026-05-06 12:25 -37.66947 144.97352 2485 ft 131 kts 268°
2026-05-06 12:25 -37.66882 144.96253 2287 ft 119 kts 268°
2026-05-06 12:25 -37.66825 144.95220 2115 ft 119 kts 267°
2026-05-06 12:25 -37.66767 144.94167 1934 ft 121 kts 268°
2026-05-06 12:26 -37.66706 144.93110 1772 ft 121 kts 269°
2026-05-06 12:26 -37.66645 144.92054 1598 ft 120 kts 269°
2026-05-06 12:26 -37.66584 144.91006 1430 ft 120 kts 269°
2026-05-06 12:26 -37.66523 144.89955 1252 ft 120 kts 269°
2026-05-06 12:27 -37.66464 144.88912 1082 ft 119 kts 272°
2026-05-06 12:27 -37.66403 144.87883 930 ft 118 kts 272°
2026-05-06 12:27 -37.66340 144.86855 787 ft 117 kts 272°
2026-05-06 12:27 -37.66287 144.85830 636 ft 117 kts 271°
2026-05-06 12:28 -37.66224 144.84829 458 ft 112 kts 274°
2026-05-06 12:28 -37.66175 144.83919 410 ft 76 kts 274°
2026-05-06 12:28 -37.66145 144.83446 415 ft 47 kts 275°
2026-05-06 12:28 -37.66144 144.83045 408 ft 45 kts 258°
2026-05-06 12:29 -37.66257 144.82730 398 ft 33 kts 228°
2026-05-06 12:29 -37.66425 144.82750 390 ft 27 kts 127°
2026-05-06 12:29 -37.66458 144.82968 393 ft 25 kts 94°
2026-05-06 12:29 -37.66471 144.83199 402 ft 34 kts 94°
2026-05-06 12:30 -37.66489 144.83501 408 ft 35 kts 95°
2026-05-06 12:30 -37.66508 144.83807 408 ft 36 kts 94°
2026-05-06 12:30 -37.66520 144.83969 408 ft 1 kts 131°
2026-05-06 12:30 -37.66538 144.83965 407 ft 9 kts 194°
2026-05-06 12:31 -37.66627 144.83954 400 ft 14 kts 173°
2026-05-06 12:31 -37.66711 144.84002 397 ft 10 kts 116°
2026-05-06 12:31 -37.66725 144.84115 396 ft 24 kts 102°
2026-05-06 12:31 -37.66834 144.84202 393 ft 16 kts 167°
2026-05-06 12:32 -37.66908 144.84245 393 ft 6 kts 110°
2026-05-06 12:32 -37.66906 144.84286 393 ft 5 kts 83°
2026-05-06 12:32 -37.66901 144.84335 389 ft 6 kts 81°
2026-05-06 12:32 -37.66899 144.84350 391 ft 0 kts 81°